[[{"header":{"parameterUnit":"m.s-1","parameterCategory":1,"la1":30.2991,"la2":30.254,"lo1":-89.0895,"lo2":-89.0444,"dy":0.0017,"dx":0.0017,"nx":28,"ny":28,"refTime":"2025-09-13T21:00:00:Z","depth":0,"parameterNumber":2,"parameterNumberName":"U-component_of_WINDS"},"data":[0,0,0,0,0,0,0,0,0,0,0,0,0,0,0,0,0,0,0,0,0,0,0,0,0,0,0,0,0,0,0,0,0,0,0,0,0,0,0,0,0,0,0,0,0,0,0,0,0,0,0,0,0,0,0,0,0,0,0.1076,0.1076,0,0.1052,0.1052,0.1052,0.1034,0.1034,0.1034,0.1033,0.1009,0.1009,0.1008,0,0,0,0,0,0,0,0,0,0,0,0,0,0.1106,0.1106,0.1076,0.1076,0.1076,0.1052,0.1052,0.1052,0.1034,0.1034,0.1034,0.1033,0.1009,0.1009,0.1008,0,0,0,0,0,0,0,0,0,0,0,0,0,0.1089,0.1106,0.1076,0.1064,0.1063,0.1052,0.1052,0.1051,0.1034,0.1034,0.1034,0.1033,0.1009,0.1009,0.1008,0.1008,0,0,0.1006,0.1005,0,0,0,0,0,0,0,0,0.109,0.1088,0.1066,0.1065,0.1063,0.1046,0.1054,0.1037,0.1034,0.1045,0.1033,0.1033,0.1022,0.102,0.1016,0.1007,0.1006,0.1006,0.1005,0.1005,0.1005,0,0,0,0,0,0,0,0.1091,0.1089,0.1067,0.1066,0.1064,0.1059,0.1057,0.105,0.1035,0.1044,0.1043,0.104,0.1021,0.1017,0.1015,0.1005,0.1006,0.1005,0.1005,0.1004,0.0994,0.0994,0,0,0,0,0,0,0.1094,0.109,0.1067,0.1066,0.1076,0.1059,0.1056,0.1052,0.1035,0.1032,0.104,0.1039,0.1018,0.1016,0.1014,0.1012,0.1005,0.1004,0.1004,0.0994,0.0994,0.0994,0,0,0,0,0,0,0.1095,0.1092,0.1068,0.1077,0.1074,0.1059,0.1054,0.1051,0.1047,0.1032,0.1029,0.1039,0.1018,0.1015,0.1009,0.1011,0.1004,0.1003,0.0994,0.0994,0.0994,0.1009,0,0,0,0,0,0,0.1096,0.1093,0.1093,0.1078,0.1074,0.1064,0.1054,0.1051,0.1046,0.1044,0.103,0.1027,0.1017,0.1011,0.1009,0.101,0.1003,0.0993,0.0994,0.0994,0.1008,0.1009,0.101,0,0,0,0,0,0.1097,0.1098,0.1093,0.109,0.1073,0.1064,0.1062,0.105,0.1046,0.1046,0.1036,0.1028,0.1011,0.101,0.1008,0.1009,0.0993,0.0994,0.0994,0.1007,0.1009,0.101,0,0,0,0,0,0,0.1114,0.1096,0.109,0.1086,0.1077,0.1061,0.1061,0.1053,0.1045,0.1044,0.103,0.1027,0.1022,0.1015,0.1014,0.1007,0.1001,0.1001,0.1012,0.1014,0.1015,0.1016,0.1002,0,0,0,0,0,0.1117,0.1112,0.1096,0.1094,0.109,0.1076,0.1072,0.1064,0.1053,0.1049,0.1039,0.103,0.1022,0.1018,0.101,0.1007,0.1003,0.1006,0.1008,0.1009,0.1009,0.1005,0.1006,0.0995,0.0995,0.0995,0,0,0.1124,0.1114,0.1111,0.1097,0.1089,0.1083,0.1073,0.1067,0.1063,0.1049,0.1042,0.1034,0.1023,0.1018,0.1015,0.1012,0.1011,0.1009,0.101,0.101,0.1006,0.1007,0.1008,0.0996,0.0996,0.0996,0,0,0.1133,0.1125,0.1122,0.1114,0.1102,0.1092,0.1092,0.1077,0.1071,0.1064,0.1053,0.1048,0.1035,0.1027,0.1021,0.1027,0.1018,0.1025,0.1031,0.1028,0.1029,0.103,0.1031,0.1031,0.1025,0.1025,0.1025,0,0.1143,0.1134,0.1122,0.1116,0.111,0.1097,0.1094,0.1086,0.1072,0.1068,0.1065,0.1048,0.104,0.1032,0.1033,0.1029,0.1028,0.1026,0.103,0.1031,0.1031,0.1032,0.1032,0.1025,0.1025,0.1025,0.1025,0,0.1146,0.114,0.1139,0.1125,0.1119,0.1115,0.1102,0.1097,0.1089,0.108,0.1073,0.1062,0.1051,0.1049,0.1042,0.104,0.1038,0.1033,0.1026,0.1033,0.1033,0.1034,0.1026,0.1026,0.1026,0.1026,0,0,0.1165,0.1144,0.1144,0.1137,0.1123,0.1117,0.1112,0.1102,0.1097,0.1088,0.1083,0.1072,0.1067,0.106,0.1052,0.1049,0.1053,0.1043,0.1043,0.1045,0.1049,0.1053,0.1054,0.1047,0.1047,0.1047,0.105,0,0.1172,0.1162,0.115,0.1144,0.1137,0.1124,0.112,0.111,0.1101,0.1094,0.1085,0.1077,0.107,0.1066,0.1063,0.1053,0.1053,0.1053,0.1042,0.1042,0.1045,0.1054,0.1059,0.1062,0.105,0.105,0.105,0,0.1177,0.1168,0.1161,0.1146,0.1143,0.1139,0.1128,0.1122,0.111,0.1104,0.1096,0.1087,0.108,0.1075,0.1065,0.1065,0.106,0.1054,0.1054,0.1052,0.1046,0.1052,0.1063,0.1063,0.1051,0.1051,0.1051,0,0.1191,0.1177,0.1171,0.1165,0.1148,0.1145,0.1138,0.1126,0.112,0.111,0.1106,0.1096,0.109,0.1082,0.107,0.1068,0.1062,0.1055,0.1056,0.1056,0.1055,0.1055,0.1064,0.1053,0.1053,0.1053,0.1053,0,0.1199,0.1195,0.1176,0.1172,0.1167,0.1154,0.1149,0.1141,0.113,0.1124,0.1113,0.1107,0.1092,0.1084,0.1075,0.1068,0.1066,0.106,0.1057,0.1061,0.1061,0.1057,0.1056,0.1053,0.1053,0.1053,0.1053,0,0.1213,0.12,0.1192,0.1176,0.1172,0.1169,0.1155,0.1151,0.1141,0.1134,0.1131,0.1116,0.1107,0.1094,0.1081,0.1074,0.1068,0.1065,0.1072,0.107,0.1071,0.1071,0.1077,0.1077,0.1067,0.1067,0.1067,0,0.1218,0.1214,0.1198,0.1193,0.1186,0.1178,0.1172,0.1158,0.1152,0.1138,0.1135,0.1125,0.1116,0.1101,0.1089,0.1079,0.1074,0.1077,0.1073,0.1076,0.1074,0.1074,0.1073,0.1078,0.1079,0.1079,0.1079,0,0.1228,0.1222,0.1214,0.1203,0.1196,0.1187,0.1177,0.1174,0.1158,0.1152,0.1142,0.1135,0.1121,0.1111,0.1098,0.109,0.1082,0.108,0.108,0.1083,0.1087,0.1084,0.1074,0.108,0.108,0.108,0.108,0.108,0.1237,0.1233,0.1221,0.1212,0.1203,0.1194,0.1189,0.1179,0.117,0.1158,0.115,0.1141,0.1128,0.1111,0.1103,0.1095,0.1092,0.1091,0.1091,0.1091,0.1092,0.1089,0.1093,0.1093,0.1093,0.1093,0.1093,0,0.1246,0.1238,0.1229,0.1216,0.1209,0.1201,0.119,0.1184,0.1176,0.1165,0.1156,0.1145,0.1134,0.1121,0.111,0.1106,0.1102,0.1103,0.1103,0.1101,0.1096,0.1097,0.1107,0.1107,0.1107,0.1107,0.1107,0.1107,0.125,0.1243,0.1235,0.1223,0.1215,0.1205,0.1199,0.119,0.1182,0.1169,0.1161,0.1152,0.114,0.1128,0.1118,0.1114,0.111,0.1113,0.1108,0.1103,0.1102,0.1101,0.1102,0.1112,0.1112,0.1114,0.1114,0.1114]},{"header":{"parameterUnit":"m.s-1","parameterCategory":1,"la1":30.2991,"la2":30.254,"lo1":-89.0895,"lo2":-89.0444,"dy":0.0017,"dx":0.0017,"nx":28,"ny":28,"refTime":"2025-09-13T21:00:00:Z","depth":0,"parameterNumber":3,"parameterNumberName":"V-component_of_WINDS"},"data":[0,0,0,0,0,0,0,0,0,0,0,0,0,0,0,0,0,0,0,0,0,0,0,0,0,0,0,0,0,0,0,0,0,0,0,0,0,0,0,0,0,0,0,0,0,0,0,0,0,0,0,0,0,0,0,0,0,0,0.2867,0.2867,0,0.2811,0.281,0.281,0.2763,0.2763,0.2762,0.2762,0.2702,0.2701,0.27,0,0,0,0,0,0,0,0,0,0,0,0,0,0.2932,0.2931,0.2867,0.2867,0.2866,0.2811,0.281,0.281,0.2763,0.2763,0.2762,0.2761,0.2702,0.2701,0.27,0,0,0,0,0,0,0,0,0,0,0,0,0,0.2893,0.2931,0.2867,0.2836,0.2833,0.2811,0.281,0.2809,0.2763,0.2763,0.2762,0.2761,0.2703,0.2701,0.27,0.2704,0,0,0.2694,0.2694,0,0,0,0,0,0,0,0,0.2895,0.289,0.2842,0.2838,0.2835,0.2793,0.2811,0.2774,0.2764,0.279,0.2762,0.2761,0.2733,0.2729,0.272,0.2701,0.2698,0.2694,0.2693,0.2692,0.2692,0,0,0,0,0,0,0,0.2898,0.2892,0.2845,0.2841,0.2837,0.2824,0.2818,0.2804,0.2766,0.2787,0.2784,0.2778,0.2731,0.2721,0.2718,0.2698,0.2694,0.2693,0.2692,0.2691,0.2678,0.2678,0,0,0,0,0,0,0.2906,0.2895,0.2847,0.2843,0.2864,0.2824,0.2816,0.2807,0.2766,0.2759,0.2779,0.2776,0.2725,0.272,0.2716,0.2717,0.2692,0.2691,0.269,0.2677,0.2678,0.2678,0,0,0,0,0,0,0.2907,0.2902,0.2849,0.2868,0.2861,0.2823,0.2813,0.2807,0.2797,0.2759,0.2752,0.2776,0.2724,0.2718,0.2707,0.2714,0.269,0.2689,0.2676,0.2677,0.2678,0.272,0,0,0,0,0,0,0.2909,0.2903,0.2905,0.2869,0.286,0.2842,0.2814,0.2806,0.2795,0.2791,0.2755,0.2749,0.2723,0.271,0.2705,0.2711,0.2687,0.2675,0.2677,0.2678,0.2717,0.2722,0.2726,0,0,0,0,0,0.2912,0.2918,0.2905,0.2899,0.2862,0.2843,0.2837,0.2808,0.2795,0.2796,0.2772,0.275,0.2714,0.2709,0.2703,0.2709,0.2675,0.2676,0.2678,0.2716,0.2721,0.2726,0,0,0,0,0,0,0.2956,0.2913,0.2898,0.2893,0.2872,0.2835,0.2835,0.2815,0.2797,0.2794,0.2758,0.275,0.2742,0.2725,0.272,0.271,0.2691,0.2692,0.2722,0.2727,0.2731,0.2735,0.2686,0,0,0,0,0,0.2965,0.2954,0.2917,0.2917,0.2907,0.2873,0.2864,0.2843,0.2819,0.281,0.2785,0.2762,0.2745,0.2735,0.2718,0.2715,0.2706,0.2716,0.272,0.2724,0.2724,0.272,0.2723,0.2683,0.2683,0.2683,0,0,0.2984,0.2959,0.2955,0.2925,0.2906,0.2894,0.2866,0.2855,0.2846,0.2808,0.2796,0.2777,0.2748,0.2741,0.2736,0.2726,0.2733,0.2726,0.2729,0.2727,0.2722,0.2725,0.2729,0.2684,0.2684,0.2684,0,0,0.3013,0.2993,0.299,0.2972,0.2944,0.2921,0.292,0.2886,0.2872,0.2859,0.283,0.2818,0.2791,0.2771,0.2758,0.2778,0.2756,0.2774,0.2795,0.2791,0.2794,0.2797,0.2803,0.2805,0.2774,0.2774,0.2775,0,0.3039,0.3022,0.2991,0.2982,0.2969,0.2935,0.293,0.2914,0.2881,0.2873,0.2862,0.2826,0.2805,0.2791,0.2796,0.2787,0.2784,0.2777,0.2796,0.2799,0.2801,0.2806,0.2808,0.2777,0.2776,0.2776,0.2776,0,0.3055,0.3044,0.3044,0.3014,0.3001,0.2995,0.2962,0.2953,0.2933,0.2911,0.2897,0.2871,0.2847,0.2842,0.2823,0.2826,0.282,0.2803,0.2783,0.2807,0.2811,0.2813,0.278,0.2779,0.2778,0.2778,0,0,0.311,0.3063,0.3063,0.3049,0.3015,0.3004,0.2995,0.2973,0.2965,0.2943,0.2934,0.2911,0.2895,0.288,0.2858,0.2854,0.287,0.2837,0.2836,0.2844,0.287,0.2883,0.2886,0.2856,0.2856,0.2856,0.2872,0,0.3133,0.3116,0.3087,0.3079,0.3067,0.3033,0.3026,0.3003,0.2982,0.2968,0.2945,0.2929,0.2909,0.29,0.2895,0.287,0.2875,0.2868,0.2846,0.2845,0.2853,0.2888,0.2901,0.2918,0.2874,0.2874,0.2875,0,0.3156,0.3137,0.3128,0.3093,0.3087,0.3081,0.3057,0.3044,0.3017,0.3002,0.2985,0.2961,0.2948,0.2931,0.2913,0.2909,0.2898,0.2884,0.2884,0.288,0.2861,0.2884,0.2923,0.2925,0.2877,0.2877,0.2877,0,0.3196,0.3167,0.3158,0.3146,0.3106,0.3102,0.3085,0.3058,0.3046,0.3025,0.3016,0.2994,0.2981,0.2964,0.2933,0.2924,0.2918,0.2898,0.2904,0.2905,0.2904,0.2904,0.294,0.2898,0.2898,0.2898,0.2898,0,0.3223,0.3218,0.3175,0.3169,0.3162,0.3129,0.3123,0.3103,0.3079,0.3067,0.3037,0.3027,0.2988,0.2973,0.2949,0.2937,0.2932,0.2918,0.2912,0.2921,0.2922,0.2913,0.291,0.2899,0.2899,0.2899,0.2899,0,0.3266,0.3237,0.3224,0.3187,0.3178,0.3174,0.3142,0.3134,0.3112,0.3098,0.3092,0.3056,0.3037,0.3005,0.2976,0.296,0.2952,0.2942,0.2961,0.2957,0.2964,0.2964,0.2994,0.2996,0.2955,0.2955,0.2955,0,0.3285,0.3281,0.3243,0.3234,0.3218,0.3203,0.319,0.3157,0.3145,0.3114,0.311,0.3088,0.3069,0.3039,0.3009,0.2987,0.2975,0.2987,0.2972,0.298,0.2974,0.2974,0.2973,0.2991,0.2992,0.2992,0.2993,0,0.3321,0.3307,0.329,0.3268,0.3253,0.3234,0.3213,0.3207,0.3169,0.3157,0.3137,0.3122,0.3092,0.3071,0.3044,0.3025,0.3002,0.2998,0.2998,0.3006,0.3017,0.301,0.297,0.2997,0.2997,0.2996,0.2996,0.2996,0.3352,0.3346,0.3319,0.33,0.3281,0.3262,0.3253,0.3229,0.3212,0.3186,0.3167,0.3148,0.312,0.3082,0.3064,0.3048,0.3038,0.3038,0.3038,0.3038,0.3041,0.3021,0.3043,0.3043,0.3042,0.3042,0.3042,0,0.3386,0.3366,0.335,0.3322,0.3307,0.3288,0.3263,0.3252,0.3236,0.3212,0.3194,0.317,0.3149,0.3118,0.3093,0.3086,0.3075,0.3081,0.3081,0.3076,0.3052,0.3054,0.309,0.309,0.309,0.309,0.309,0.309,0.3402,0.339,0.3373,0.3351,0.3331,0.3313,0.33,0.3282,0.3263,0.3238,0.322,0.32,0.3173,0.3146,0.3125,0.3116,0.3108,0.3117,0.3105,0.3083,0.3078,0.3074,0.3076,0.3116,0.3116,0.3131,0.3131,0.3131]}]]